QPF
0.00 0.01 0.02 0.02 0.02 0.02 0.03 0.02 0.01 0.01 0.00 0.00 0.00 0.00 0.00 0.00 0.00 0.00 0.01 0.01 0.01 0.02 0.04 0.05 0.06 0.06 0.06 0.06 0.05 0.04 0.03 0.02 0.02 0.02 0.02 0.02 0.03 0.03 0.03 0.03 0.03 0.04 0.05
0.00 0.01 0.01 0.02 0.02 0.03 0.04 0.04 0.03 0.02 0.01 0.00 0.00 0.00 0.00 0.00 0.00 0.00 0.01 0.01 0.01 0.01 0.02 0.03 0.05 0.07 0.07 0.08 0.08 0.05 0.04 0.04 0.03 0.02 0.03 0.04 0.04 0.04 0.04 0.04 0.04 0.05 0.06
0.01 0.01 0.01 0.02 0.02 0.02 0.03 0.04 0.04 0.03 0.01 0.00 0.00 0.00 0.00 0.00 0.00 0.00 0.00 0.01 0.01 0.01 0.01 0.02 0.04 0.05 0.06 0.07 0.13 0.14 0.10 0.06 0.04 0.03 0.03 0.04 0.04 0.05 0.06 0.06 0.05 0.05 0.05
0.02 0.02 0.02 0.02 0.02 0.02 0.02 0.03 0.03 0.02 0.01 0.01 0.01 0.01 0.01 0.01 0.00 0.00 0.00 0.00 0.01 0.01 0.00 0.01 0.02 0.04 0.05 0.07 0.09 0.12 0.11 0.07 0.05 0.04 0.04 0.04 0.03 0.03 0.04 0.05 0.06 0.05 0.04
0.02 0.03 0.03 0.02 0.03 0.03 0.03 0.03 0.03 0.02 0.01 0.01 0.02 0.02 0.02 0.01 0.01 0.01 0.00 0.00 0.01 0.01 0.01 0.01 0.01 0.02 0.03 0.06 0.07 0.06 0.06 0.04 0.03 0.03 0.04 0.05 0.04 0.04 0.04 0.05 0.05 0.04 0.04
0.02 0.02 0.03 0.03 0.03 0.02 0.03 0.03 0.02 0.02 0.01 0.01 0.01 0.02 0.03 0.02 0.01 0.01 0.01 0.01 0.01 0.01 0.01 0.01 0.01 0.01 0.02 0.03 0.05 0.06 0.06 0.05 0.03 0.02 0.03 0.04 0.05 0.06 0.06 0.05 0.05 0.05 0.04
0.03 0.02 0.02 0.02 0.02 0.02 0.01 0.01 0.01 0.01 0.01 0.00 0.01 0.01 0.02 0.02 0.01 0.01 0.01 0.01 0.01 0.01 0.01 0.01 0.01 0.01 0.02 0.02 0.03 0.05 0.08 0.08 0.06 0.04 0.03 0.03 0.03 0.05 0.06 0.06 0.05 0.05 0.05
0.04 0.03 0.01 0.01 0.01 0.01 0.02 0.01 0.01 0.01 0.01 0.01 0.01 0.01 0.01 0.01 0.02 0.01 0.01 0.01 0.01 0.01 0.01 0.01 0.01 0.01 0.01 0.01 0.01 0.03 0.06 0.08 0.08 0.07 0.06 0.04 0.03 0.03 0.05 0.05 0.04 0.05 0.05
0.05 0.04 0.03 0.02 0.02 0.01 0.01 0.01 0.01 0.02 0.02 0.03 0.03 0.03 0.02 0.02 0.02 0.01 0.01 0.02 0.02 0.02 0.02 0.02 0.02 0.02 0.02 0.01 0.01 0.02 0.03 0.06 0.06 0.07 0.07 0.06 0.05 0.04 0.04 0.05 0.05 0.04 0.05
0.03 0.04 0.04 0.04 0.03 0.02 0.02 0.02 0.01 0.02 0.02 0.02 0.03 0.03 0.02 0.02 0.02 0.01 0.01 0.02 0.02 0.03 0.03 0.02 0.02 0.02 0.02 0.02 0.02 0.02 0.02 0.03 0.04 0.06 0.08 0.07 0.06 0.05 0.05 0.05 0.06 0.06 0.06
0.02 0.02 0.03 0.03 0.03 0.03 0.02 0.02 0.02 0.02 0.01 0.01 0.02 0.03 0.05 0.03 0.02 0.02 0.02 0.02 0.02 0.02 0.03 0.03 0.02 0.02 0.02 0.02 0.02 0.02 0.02 0.02 0.03 0.05 0.09 0.09 0.07 0.06 0.05 0.05 0.05 0.06 0.07
0.01 0.02 0.02 0.03 0.03 0.03 0.02 0.02 0.03 0.02 0.02 0.02 0.01 0.01 0.03 0.03 0.03 0.02 0.02 0.02 0.02 0.02 0.02 0.02 0.03 0.02 0.02 0.02 0.03 0.03 0.02 0.01 0.02 0.03 0.06 0.09 0.08 0.07 0.07 0.07 0.06 0.06 0.07
0.02 0.02 0.03 0.03 0.03 0.04 0.03 0.03 0.03 0.03 0.03 0.02 0.02 0.02 0.01 0.01 0.01 0.02 0.02 0.02 0.02 0.01 0.02 0.02 0.03 0.02 0.02 0.02 0.02 0.02 0.02 0.01 0.01 0.02 0.03 0.06 0.08 0.07 0.06 0.07 0.07 0.07 0.08
0.02 0.02 0.02 0.03 0.03 0.04 0.05 0.05 0.04 0.03 0.03 0.03 0.03 0.02 0.02 0.02 0.01 0.02 0.02 0.02 0.02 0.02 0.01 0.02 0.03 0.03 0.02 0.02 0.03 0.02 0.02 0.02 0.03 0.03 0.03 0.05 0.07 0.07 0.05 0.04 0.05 0.06 0.08
0.02 0.02 0.02 0.02 0.03 0.03 0.04 0.05 0.05 0.04 0.03 0.04 0.04 0.03 0.02 0.02 0.01 0.01 0.02 0.02 0.02 0.02 0.02 0.01 0.01 0.02 0.02 0.02 0.02 0.02 0.02 0.02 0.03 0.04 0.04 0.04 0.05 0.05 0.06 0.06 0.05 0.05 0.06
0.03 0.02 0.03 0.02 0.02 0.03 0.03 0.04 0.04 0.04 0.04 0.03 0.03 0.04 0.03 0.02 0.01 0.01 0.01 0.01 0.02 0.02 0.02 0.01 0.01 0.01 0.01 0.01 0.02 0.02 0.02 0.02 0.03 0.04 0.05 0.05 0.04 0.04 0.05 0.06 0.06 0.07 0.08
0.03 0.03 0.02 0.03 0.02 0.02 0.02 0.03 0.03 0.03 0.03 0.02 0.02 0.03 0.03 0.03 0.01 0.01 0.01 0.01 0.01 0.01 0.01 0.01 0.01 0.01 0.01 0.01 0.01 0.01 0.02 0.02 0.02 0.02 0.03 0.04 0.05 0.05 0.04 0.05 0.05 0.04 0.05
0.02 0.03 0.03 0.03 0.03 0.03 0.02 0.02 0.02 0.02 0.02 0.02 0.01 0.01 0.01 0.02 0.02 0.01 0.00 0.00 0.01 0.01 0.01 0.01 0.01 0.01 0.01 0.01 0.01 0.01 0.01 0.01 0.02 0.02 0.02 0.03 0.04 0.05 0.05 0.05 0.05 0.05 0.04
0.01 0.02 0.03 0.03 0.03 0.03 0.03 0.03 0.03 0.02 0.02 0.01 0.01 0.01 0.01 0.01 0.01 0.01 0.01 0.00 0.00 0.00 0.01 0.01 0.01 0.00 0.00 0.00 0.01 0.01 0.01 0.01 0.01 0.01 0.02 0.02 0.02 0.03 0.04 0.05 0.05 0.04 0.04
0.01 0.01 0.02 0.03 0.03 0.03 0.03 0.03 0.03 0.03 0.03 0.03 0.02 0.01 0.01 0.01 0.01 0.01 0.01 0.01 0.01 0.01 0.01 0.01 0.01 0.01 0.01 0.01 0.01 0.01 0.01 0.01 0.01 0.01 0.01 0.01 0.02 0.02 0.03 0.04 0.04 0.04 0.04
0.01 0.01 0.01 0.02 0.02 0.03 0.03 0.03 0.03 0.03 0.03 0.03 0.03 0.02 0.02 0.01 0.01 0.01 0.01 0.01 0.01 0.01 0.01 0.01 0.01 0.01 0.01 0.01 0.01 0.01 0.01 0.01 0.01 0.01 0.01 0.01 0.01 0.01 0.01 0.02 0.02 0.03 0.03
0.01 0.01 0.01 0.01 0.01 0.01 0.02 0.03 0.03 0.03 0.03 0.03 0.03 0.03 0.03 0.02 0.02 0.01 0.01 0.01 0.01 0.02 0.01 0.01 0.01 0.01 0.01 0.01 0.01 0.01 0.01 0.01 0.01 0.00 0.01 0.01 0.01 0.01 0.01 0.01 0.02 0.02 0.02
0.01 0.02 0.02 0.01 0.01 0.01 0.01 0.02 0.02 0.02 0.02 0.02 0.02 0.02 0.02 0.02 0.02 0.01 0.01 0.01 0.01 0.02 0.02 0.02 0.02 0.01 0.01 0.01 0.01 0.01 0.01 0.01 0.01 0.01 0.01 0.01 0.00 0.01 0.01 0.01 0.02 0.02 0.02
0.01 0.01 0.01 0.01 0.01 0.01 0.02 0.02 0.02 0.02 0.02 0.02 0.02 0.02 0.02 0.02 0.02 0.02 0.01 0.01 0.01 0.01 0.01 0.01 0.01 0.01 0.01 0.01 0.01 0.01 0.01 0.01 0.00 0.00 0.01 0.01 0.01 0.01 0.01 0.01 0.01 0.02 0.01
0.01 0.01 0.01 0.01 0.01 0.01 0.02 0.02 0.02 0.02 0.01 0.01 0.02 0.02 0.02 0.02 0.01 0.02 0.02 0.02 0.01 0.01 0.00 0.01 0.00 0.01 0.01 0.01 0.01 0.02 0.02 0.02 0.01 0.01 0.01 0.01 0.00 0.00 0.01 0.01 0.01 0.01 0.01
0.01 0.01 0.01 0.01 0.01 0.01 0.01 0.02 0.02 0.02 0.01 0.01 0.01 0.01 0.02 0.02 0.02 0.02 0.02 0.02 0.01 0.01 0.00 0.01 0.00 0.00 0.01 0.01 0.01 0.01 0.01 0.02 0.01 0.01 0.00 0.00 0.00 0.01 0.01 0.01 0.01 0.01 0.01
MSLP
1034.95 1034.74 1034.46 1034.09 1033.68 1033.22 1032.74 1032.25 1031.77 1031.28 1030.79 1030.28 1029.75 1029.20 1028.64 1028.05 1027.46 1026.87 1026.27 1025.68 1025.09 1024.52 1023.95 1023.40 1022.88 1022.38 1021.90 1021.45 1021.00 1020.55 1020.08 1019.61 1019.12 1018.66 1018.24 1017.90 1017.66 1017.56 1017.59 1017.74 1018.00 1018.33 1018.70
1035.50 1035.27 1034.96 1034.58 1034.15 1033.70 1033.23 1032.75 1032.27 1031.77 1031.25 1030.70 1030.13 1029.54 1028.95 1028.35 1027.77 1027.20 1026.66 1026.12 1025.60 1025.08 1024.57 1024.06 1023.56 1023.06 1022.58 1022.09 1021.60 1021.10 1020.57 1020.02 1019.45 1018.90 1018.38 1017.94 1017.60 1017.39 1017.33 1017.41 1017.61 1017.90 1018.25
1035.97 1035.70 1035.37 1034.98 1034.56 1034.13 1033.69 1033.24 1032.76 1032.26 1031.72 1031.14 1030.53 1029.90 1029.28 1028.67 1028.09 1027.56 1027.05 1026.58 1026.12 1025.66 1025.20 1024.73 1024.25 1023.76 1023.27 1022.76 1022.24 1021.69 1021.11 1020.49 1019.86 1019.22 1018.61 1018.06 1017.61 1017.30 1017.13 1017.11 1017.22 1017.45 1017.75
1036.36 1036.07 1035.72 1035.34 1034.95 1034.55 1034.15 1033.73 1033.28 1032.78 1032.22 1031.62 1030.97 1030.31 1029.65 1029.03 1028.46 1027.94 1027.48 1027.05 1026.64 1026.23 1025.81 1025.37 1024.91 1024.43 1023.93 1023.41 1022.86 1022.27 1021.65 1020.99 1020.29 1019.58 1018.88 1018.24 1017.69 1017.26 1016.97 1016.84 1016.85 1016.98 1017.22
1036.69 1036.38 1036.03 1035.67 1035.32 1034.97 1034.62 1034.24 1033.82 1033.33 1032.77 1032.14 1031.46 1030.76 1030.08 1029.45 1028.88 1028.37 1027.94 1027.54 1027.17 1026.79 1026.39 1025.97 1025.51 1025.03 1024.52 1023.98 1023.41 1022.80 1022.14 1021.44 1020.70 1019.93 1019.17 1018.45 1017.80 1017.26 1016.86 1016.61 1016.50 1016.53 1016.68
1036.96 1036.65 1036.31 1035.98 1035.67 1035.38 1035.09 1034.76 1034.37 1033.90 1033.34 1032.70 1032.00 1031.28 1030.58 1029.93 1029.35 1028.86 1028.43 1028.05 1027.69 1027.32 1026.93 1026.50 1026.04 1025.54 1025.01 1024.44 1023.85 1023.22 1022.54 1021.81 1021.03 1020.23 1019.42 1018.64 1017.92 1017.29 1016.79 1016.43 1016.21 1016.13 1016.17
1037.20 1036.88 1036.56 1036.26 1036.00 1035.77 1035.53 1035.25 1034.90 1034.46 1033.91 1033.27 1032.56 1031.83 1031.12 1030.47 1029.89 1029.39 1028.96 1028.57 1028.20 1027.82 1027.40 1026.95 1026.46 1025.93 1025.37 1024.78 1024.16 1023.51 1022.81 1022.07 1021.28 1020.45 1019.62 1018.80 1018.04 1017.35 1016.78 1016.33 1016.01 1015.82 1015.75
1037.40 1037.07 1036.77 1036.51 1036.29 1036.10 1035.91 1035.68 1035.37 1034.95 1034.43 1033.80 1033.12 1032.40 1031.70 1031.05 1030.47 1029.96 1029.51 1029.09 1028.69 1028.26 1027.81 1027.31 1026.77 1026.20 1025.61 1024.99 1024.34 1023.67 1022.96 1022.21 1021.42 1020.60 1019.76 1018.94 1018.16 1017.45 1016.84 1016.33 1015.93 1015.65 1015.47
1037.58 1037.24 1036.95 1036.71 1036.52 1036.36 1036.20 1036.01 1035.73 1035.35 1034.86 1034.28 1033.63 1032.95 1032.27 1031.64 1031.06 1030.53 1030.05 1029.59 1029.13 1028.64 1028.12 1027.56 1026.96 1026.34 1025.71 1025.06 1024.40 1023.72 1023.00 1022.26 1021.48 1020.68 1019.86 1019.06 1018.30 1017.60 1016.97 1016.43 1015.99 1015.63 1015.36
1037.73 1037.39 1037.10 1036.86 1036.68 1036.53 1036.39 1036.22 1035.97 1035.63 1035.18 1034.65 1034.06 1033.43 1032.80 1032.19 1031.62 1031.07 1030.55 1030.03 1029.49 1028.92 1028.32 1027.68 1027.03 1026.36 1025.69 1025.02 1024.35 1023.67 1022.97 1022.24 1021.49 1020.71 1019.94 1019.18 1018.46 1017.78 1017.18 1016.64 1016.17 1015.76 1015.41
1037.87 1037.52 1037.22 1036.97 1036.78 1036.63 1036.48 1036.31 1036.07 1035.76 1035.36 1034.89 1034.36 1033.80 1033.22 1032.65 1032.08 1031.52 1030.95 1030.36 1029.74 1029.08 1028.39 1027.69 1026.97 1026.27 1025.58 1024.90 1024.23 1023.56 1022.88 1022.18 1021.46 1020.73 1020.00 1019.28 1018.61 1017.99 1017.41 1016.90 1016.42 1015.99 1015.58
1037.98 1037.62 1037.31 1037.04 1036.82 1036.64 1036.46 1036.27 1036.04 1035.75 1035.39 1034.98 1034.51 1034.02 1033.50 1032.96 1032.41 1031.83 1031.21 1030.54 1029.84 1029.10 1028.34 1027.56 1026.81 1026.07 1025.37 1024.70 1024.05 1023.41 1022.75 1022.09 1021.40 1020.71 1020.02 1019.36 1018.73 1018.16 1017.63 1017.14 1016.68 1016.24 1015.79
1038.05 1037.69 1037.35 1037.06 1036.80 1036.57 1036.35 1036.12 1035.87 1035.58 1035.25 1034.88 1034.48 1034.05 1033.58 1033.08 1032.54 1031.94 1031.28 1030.56 1029.78 1028.97 1028.14 1027.32 1026.53 1025.79 1025.10 1024.45 1023.82 1023.21 1022.59 1021.95 1021.30 1020.64 1019.98 1019.36 1018.77 1018.24 1017.75 1017.29 1016.86 1016.42 1015.97
1038.05 1037.69 1037.35 1037.02 1036.71 1036.42 1036.14 1035.86 1035.56 1035.26 1034.93 1034.60 1034.24 1033.86 1033.44 1032.98 1032.44 1031.83 1031.14 1030.37 1029.55 1028.68 1027.81 1026.97 1026.17 1025.43 1024.76 1024.13 1023.54 1022.96 1022.37 1021.76 1021.12 1020.48 1019.85 1019.24 1018.68 1018.17 1017.71 1017.29 1016.88 1016.47 1016.03
1037.98 1037.62 1037.27 1036.91 1036.55 1036.20 1035.84 1035.49 1035.14 1034.80 1034.46 1034.13 1033.80 1033.45 1033.07 1032.63 1032.11 1031.50 1030.79 1030.00 1029.15 1028.26 1027.37 1026.51 1025.72 1025.00 1024.35 1023.76 1023.19 1022.64 1022.07 1021.47 1020.85 1020.21 1019.58 1018.97 1018.42 1017.92 1017.48 1017.09 1016.71 1016.33 1015.92
1037.81 1037.47 1037.10 1036.72 1036.32 1035.90 1035.47 1035.04 1034.62 1034.23 1033.86 1033.51 1033.18 1032.84 1032.48 1032.06 1031.56 1030.96 1030.25 1029.46 1028.60 1027.71 1026.83 1025.98 1025.21 1024.51 1023.88 1023.31 1022.76 1022.22 1021.66 1021.06 1020.44 1019.80 1019.16 1018.55 1017.99 1017.49 1017.06 1016.68 1016.34 1016.00 1015.63
1037.56 1037.23 1036.87 1036.46 1036.01 1035.54 1035.04 1034.53 1034.04 1033.57 1033.15 1032.77 1032.42 1032.08 1031.71 1031.30 1030.82 1030.23 1029.54 1028.77 1027.93 1027.06 1026.20 1025.38 1024.63 1023.95 1023.34 1022.77 1022.23 1021.69 1021.13 1020.52 1019.89 1019.24 1018.59 1017.97 1017.41 1016.91 1016.48 1016.12 1015.80 1015.49 1015.18
1037.25 1036.93 1036.57 1036.14 1035.67 1035.14 1034.57 1034.00 1033.43 1032.89 1032.41 1031.98 1031.58 1031.22 1030.84 1030.43 1029.95 1029.38 1028.72 1027.97 1027.17 1026.33 1025.51 1024.72 1023.98 1023.32 1022.71 1022.15 1021.60 1021.05 1020.47 1019.86 1019.22 1018.56 1017.91 1017.30 1016.73 1016.24 1015.82 1015.46 1015.16 1014.89 1014.62
1036.92 1036.60 1036.23 1035.80 1035.30 1034.73 1034.11 1033.48 1032.84 1032.24 1031.68 1031.18 1030.74 1030.33 1029.92 1029.49 1029.01 1028.45 1027.81 1027.10 1026.33 1025.54 1024.75 1023.99 1023.28 1022.62 1022.01 1021.44 1020.87 1020.30 1019.71 1019.09 1018.46 1017.81 1017.17 1016.57 1016.03 1015.55 1015.13 1014.79 1014.50 1014.24 1014.00
1036.58 1036.27 1035.90 1035.45 1034.93 1034.34 1033.68 1032.99 1032.30 1031.63 1031.01 1030.45 1029.94 1029.47 1029.01 1028.55 1028.05 1027.49 1026.86 1026.17 1025.44 1024.69 1023.94 1023.20 1022.51 1021.85 1021.23 1020.64 1020.06 1019.47 1018.87 1018.26 1017.64 1017.02 1016.42 1015.86 1015.34 1014.89 1014.49 1014.15 1013.86 1013.61 1013.38
1036.27 1035.95 1035.57 1035.12 1034.58 1033.97 1033.29 1032.56 1031.82 1031.10 1030.42 1029.79 1029.21 1028.67 1028.15 1027.64 1027.10 1026.52 1025.89 1025.22 1024.51 1023.79 1023.06 1022.35 1021.67 1021.02 1020.39 1019.78 1019.18 1018.59 1018.00 1017.40 1016.81 1016.24 1015.69 1015.18 1014.72 1014.29 1013.92 1013.58 1013.28 1013.01 1012.77
1035.98 1035.65 1035.26 1034.80 1034.25 1033.62 1032.92 1032.17 1031.40 1030.64 1029.90 1029.21 1028.56 1027.95 1027.36 1026.78 1026.18 1025.57 1024.92 1024.25 1023.55 1022.85 1022.14 1021.45 1020.78 1020.13 1019.50 1018.88 1018.28 1017.69 1017.10 1016.54 1015.99 1015.48 1015.00 1014.55 1014.14 1013.76 1013.40 1013.07 1012.75 1012.45 1012.17
1035.72 1035.37 1034.97 1034.49 1033.92 1033.28 1032.57 1031.80 1031.01 1030.22 1029.44 1028.69 1027.98 1027.30 1026.63 1025.98 1025.32 1024.65 1023.97 1023.28 1022.58 1021.88 1021.20 1020.52 1019.86 1019.22 1018.59 1017.97 1017.37 1016.79 1016.23 1015.70 1015.20 1014.75 1014.33 1013.95 1013.60 1013.25 1012.92 1012.58 1012.24 1011.90 1011.57
1035.47 1035.09 1034.66 1034.15 1033.57 1032.91 1032.18 1031.41 1030.61 1029.80 1029.00 1028.21 1027.45 1026.70 1025.97 1025.24 1024.52 1023.79 1023.06 1022.34 1021.63 1020.93 1020.25 1019.59 1018.95 1018.31 1017.69 1017.09 1016.49 1015.92 1015.38 1014.88 1014.43 1014.02 1013.66 1013.34 1013.03 1012.73 1012.41 1012.07 1011.71 1011.33 1010.96
1035.19 1034.78 1034.31 1033.77 1033.16 1032.48 1031.74 1030.96 1030.16 1029.35 1028.54 1027.74 1026.95 1026.16 1025.37 1024.58 1023.79 1023.00 1022.22 1021.46 1020.73 1020.02 1019.35 1018.70 1018.07 1017.45 1016.84 1016.24 1015.66 1015.09 1014.56 1014.08 1013.65 1013.28 1012.96 1012.67 1012.40 1012.13 1011.83 1011.49 1011.12 1010.72 1010.31
1034.89 1034.44 1033.92 1033.33 1032.68 1031.97 1031.22 1030.44 1029.65 1028.85 1028.06 1027.26 1026.46 1025.65 1024.82 1023.99 1023.14 1022.30 1021.48 1020.68 1019.93 1019.21 1018.53 1017.88 1017.26 1016.65 1016.05 1015.45 1014.86 1014.30 1013.77 1013.28 1012.86 1012.50 1012.19 1011.92 1011.67 1011.42 1011.13 1010.81 1010.44 1010.04 1009.63
Thickness
5583 5583 5583 5584 5585 5586 5588 5589 5590 5592 5593 5594 5595 5596 5597 5599 5600 5602 5604 5607 5610 5613 5615 5617 5619 5620 5622 5623 5623 5624 5626 5627 5628 5629 5630 5630 5631 5631 5631 5632 5632 5633 5634
5574 5574 5574 5575 5575 5577 5577 5579 5580 5581 5582 5583 5584 5585 5587 5589 5590 5592 5594 5596 5599 5602 5605 5607 5609 5611 5612 5614 5615 5616 5618 5619 5620 5621 5622 5623 5623 5624 5624 5625 5626 5626 5627
5565 5565 5565 5565 5565 5567 5568 5569 5570 5571 5572 5572 5573 5574 5576 5578 5580 5582 5583 5586 5588 5590 5593 5596 5598 5601 5602 5604 5606 5607 5609 5610 5611 5613 5614 5615 5615 5616 5617 5618 5619 5620 5621
5554 5555 5555 5555 5555 5557 5558 5559 5559 5560 5560 5561 5561 5563 5565 5567 5569 5571 5572 5574 5577 5579 5581 5583 5586 5589 5592 5594 5595 5596 5598 5600 5601 5603 5605 5606 5607 5608 5609 5610 5611 5612 5614
5544 5544 5544 5544 5545 5546 5546 5547 5547 5548 5547 5548 5550 5552 5553 5555 5557 5559 5561 5563 5565 5567 5569 5571 5574 5577 5579 5581 5584 5586 5587 5589 5591 5593 5594 5596 5597 5599 5601 5602 5603 5605 5606
5533 5533 5533 5533 5534 5534 5534 5535 5535 5535 5535 5537 5539 5540 5542 5544 5545 5547 5549 5550 5552 5554 5557 5559 5561 5563 5566 5568 5571 5573 5576 5578 5580 5582 5584 5585 5587 5589 5592 5593 5595 5596 5598
5521 5522 5522 5522 5522 5522 5523 5523 5524 5523 5523 5525 5527 5528 5530 5531 5532 5533 5535 5537 5539 5541 5543 5545 5547 5549 5552 5554 5557 5560 5563 5566 5568 5571 5573 5575 5577 5579 5582 5584 5586 5588 5589
5509 5510 5510 5510 5510 5511 5510 5511 5511 5511 5510 5511 5512 5514 5516 5518 5518 5520 5521 5523 5524 5526 5528 5530 5532 5535 5537 5539 5542 5545 5549 5553 5556 5559 5561 5564 5566 5569 5572 5574 5576 5578 5580
5496 5497 5498 5498 5498 5499 5499 5499 5499 5499 5498 5497 5499 5500 5502 5504 5502 5505 5506 5507 5509 5511 5512 5514 5517 5520 5522 5525 5528 5531 5534 5538 5542 5545 5548 5551 5555 5558 5561 5563 5565 5568 5570
5483 5484 5485 5485 5485 5486 5486 5486 5486 5486 5487 5485 5485 5486 5486 5487 5488 5490 5491 5492 5493 5495 5497 5499 5501 5504 5507 5510 5513 5516 5519 5523 5527 5531 5535 5538 5541 5545 5548 5551 5553 5556 5559
5470 5471 5471 5472 5472 5473 5473 5473 5473 5473 5474 5473 5472 5472 5472 5472 5473 5475 5476 5476 5477 5479 5482 5484 5486 5489 5492 5495 5498 5501 5504 5508 5512 5516 5520 5524 5528 5531 5534 5538 5541 5544 5547
5456 5457 5458 5458 5459 5459 5459 5459 5459 5459 5459 5460 5459 5459 5459 5459 5459 5459 5460 5460 5461 5464 5466 5469 5471 5474 5476 5479 5482 5485 5489 5493 5496 5500 5505 5509 5513 5516 5520 5524 5527 5531 5534
5442 5443 5444 5444 5444 5444 5445 5445 5445 5445 5444 5445 5445 5445 5446 5446 5446 5446 5445 5444 5445 5448 5450 5453 5456 5457 5460 5463 5466 5469 5472 5476 5480 5484 5489 5493 5497 5501 5505 5508 5512 5516 5520
5428 5428 5429 5430 5430 5430 5431 5431 5431 5430 5430 5430 5430 5430 5431 5431 5431 5431 5432 5430 5429 5431 5434 5437 5440 5442 5443 5446 5449 5452 5456 5459 5463 5467 5472 5476 5480 5484 5489 5493 5497 5501 5505
5414 5414 5414 5415 5415 5416 5416 5416 5416 5415 5415 5414 5415 5415 5415 5415 5416 5416 5417 5419 5418 5417 5421 5423 5423 5426 5427 5429 5432 5435 5439 5442 5446 5450 5454 5458 5463 5467 5471 5477 5481 5485 5489
5400 5400 5400 5400 5401 5401 5401 5401 5401 5400 5400 5399 5399 5399 5400 5400 5401 5401 5402 5403 5405 5405 5406 5408 5408 5409 5411 5413 5416 5419 5422 5426 5429 5433 5437 5441 5446 5450 5454 5459 5464 5469 5473
5386 5386 5386 5386 5386 5386 5387 5386 5386 5386 5385 5385 5384 5385 5385 5385 5386 5386 5387 5389 5389 5390 5390 5391 5392 5393 5394 5397 5400 5402 5406 5409 5413 5417 5421 5425 5429 5433 5437 5442 5446 5451 5456
5372 5372 5372 5372 5372 5372 5372 5372 5371 5372 5371 5371 5371 5370 5371 5371 5372 5372 5372 5374 5375 5376 5376 5376 5377 5377 5378 5381 5384 5387 5390 5393 5396 5401 5405 5409 5413 5416 5421 5425 5429 5434 5439
5358 5357 5357 5357 5357 5357 5357 5357 5357 5357 5357 5357 5357 5357 5357 5357 5357 5358 5359 5360 5361 5362 5362 5363 5363 5362 5363 5365 5367 5371 5374 5377 5380 5384 5389 5393 5396 5400 5404 5408 5412 5417 5422
5344 5343 5343 5343 5342 5342 5342 5342 5343 5343 5343 5343 5343 5343 5343 5343 5344 5344 5345 5346 5346 5347 5347 5348 5348 5348 5348 5350 5351 5354 5358 5360 5364 5368 5372 5376 5379 5383 5387 5392 5397 5401 5405
5330 5329 5329 5328 5328 5328 5329 5329 5329 5330 5330 5329 5329 5329 5329 5330 5331 5331 5332 5332 5332 5332 5333 5333 5334 5334 5334 5335 5337 5339 5341 5344 5348 5351 5355 5359 5364 5368 5371 5375 5380 5384 5389
5316 5316 5315 5314 5314 5315 5316 5318 5317 5317 5316 5316 5315 5315 5316 5317 5317 5318 5319 5319 5319 5319 5319 5319 5320 5320 5321 5321 5323 5324 5325 5328 5333 5337 5338 5342 5346 5350 5354 5359 5363 5368 5372
5303 5302 5301 5301 5300 5301 5302 5304 5304 5303 5302 5301 5301 5301 5302 5303 5304 5304 5304 5305 5305 5305 5307 5307 5307 5307 5308 5309 5309 5310 5310 5312 5316 5319 5321 5326 5329 5333 5338 5342 5346 5351 5355
5289 5288 5288 5287 5287 5288 5289 5290 5290 5289 5288 5287 5287 5288 5288 5289 5290 5290 5290 5290 5290 5291 5292 5293 5294 5295 5294 5294 5295 5296 5296 5298 5301 5303 5305 5309 5313 5317 5321 5326 5330 5334 5338
5277 5276 5275 5275 5274 5275 5276 5276 5276 5274 5274 5274 5274 5274 5274 5275 5277 5278 5278 5278 5278 5277 5277 5278 5279 5280 5281 5281 5281 5281 5281 5282 5286 5288 5289 5292 5297 5300 5305 5310 5314 5318 5321
5265 5263 5263 5262 5261 5261 5262 5263 5262 5261 5260 5261 5261 5261 5262 5262 5263 5264 5263 5263 5263 5263 5263 5263 5264 5265 5265 5266 5267 5267 5268 5268 5270 5273 5275 5276 5280 5282 5288 5295 5298 5301 5305